TimeCDT,TemperatureF,Dew PointF,Humidity,Sea Level PressureIn,VisibilityMPH,Wind Direction,Wind SpeedMPH,Gust SpeedMPH,PrecipitationIn,Events,Conditions,WindDirDegrees,DateUTC
12:54 AM,77.0,70.0,79,30.13,10.0,SSE,3.5,-,N/A,,Clear,160,2013-09-11 05:54:00
1:54 AM,75.0,69.1,82,30.12,10.0,Calm,Calm,-,N/A,,Clear,0,2013-09-11 06:54:00
2:54 AM,73.9,69.1,85,30.12,9.0,Calm,Calm,-,N/A,,Clear,0,2013-09-11 07:54:00
3:54 AM,73.9,70.0,87,30.12,9.0,South,3.5,-,N/A,,Clear,170,2013-09-11 08:54:00
4:54 AM,73.9,70.0,87,30.13,9.0,SSW,3.5,-,N/A,,Clear,200,2013-09-11 09:54:00
5:54 AM,73.9,70.0,87,30.14,9.0,SSE,3.5,-,N/A,,Scattered Clouds,160,2013-09-11 10:54:00
6:54 AM,73.9,70.0,87,30.16,7.0,South,4.6,-,N/A,,Clear,190,2013-09-11 11:54:00
7:54 AM,75.9,71.1,85,30.17,8.0,SSW,5.8,-,N/A,,Clear,200,2013-09-11 12:54:00
8:54 AM,78.1,71.1,79,30.17,9.0,SW,8.1,-,N/A,,Clear,220,2013-09-11 13:54:00
9:54 AM,81.0,72.0,74,30.16,9.0,Variable,3.5,-,N/A,,Clear,0,2013-09-11 14:54:00
10:54 AM,84.9,72.0,65,30.15,9.0,SSW,6.9,-,N/A,,Clear,200,2013-09-11 15:54:00
11:54 AM,88.0,73.0,61,30.13,9.0,SW,6.9,-,N/A,,Clear,220,2013-09-11 16:54:00
12:54 PM,91.0,70.0,50,30.12,8.0,Calm,Calm,-,N/A,,Clear,0,2013-09-11 17:54:00
1:54 PM,91.9,70.0,48,30.09,10.0,Calm,Calm,-,N/A,,Clear,0,2013-09-11 18:54:00
2:54 PM,93.9,69.1,44,30.07,10.0,SW,4.6,-,N/A,,Partly Cloudy,230,2013-09-11 19:54:00
3:54 PM,93.9,66.9,41,30.06,10.0,West,5.8,-,N/A,,Clear,270,2013-09-11 20:54:00
4:54 PM,93.0,66.0,41,30.06,10.0,SW,3.5,-,N/A,,Clear,230,2013-09-11 21:54:00
5:54 PM,88.0,72.0,59,30.06,9.0,SW,9.2,-,N/A,,Clear,220,2013-09-11 22:54:00
6:54 PM,84.9,69.1,59,30.06,10.0,South,4.6,-,N/A,,Clear,190,2013-09-11 23:54:00
7:54 PM,82.9,73.0,72,30.07,9.0,South,8.1,-,N/A,,Clear,190,2013-09-12 00:54:00
8:54 PM,81.0,73.0,77,30.08,9.0,SSW,10.4,-,N/A,,Clear,210,2013-09-12 01:54:00
9:54 PM,78.1,71.1,79,30.07,9.0,SW,8.1,-,N/A,,Clear,220,2013-09-12 02:54:00
10:54 PM,75.9,70.0,82,30.06,9.0,SW,4.6,-,N/A,,Clear,220,2013-09-12 03:54:00
11:54 PM,75.9,70.0,82,30.04,10.0,WSW,3.5,-,N/A,,Clear,250,2013-09-12 04:54:00